Date String (YYYY-MM-DD hh:mm:ss) UTC,Instrument flags,absolute air pressure of the measurement (hPa),sample flow rate (lpm),inlet stack bypass flow (lpm),air temperature of the measurement (°C),ambient temperature measured by the external sensor (°C),aerosol sample conditioner tube jacket temperature (°C),OPC LED temperature (°C),internal box temperature (°C),relative humidity of the measurement (%),span deviation,mass concentration of particles derived from Lorenz-Mie calculation of OPC scattering (μg/m³),mass concentration of particles derived from Lorenz-Mie calculation of OPC scattering (μg/m³),mass concentration of particles derived from Lorenz-Mie calculation of OPC scattering (μg/m³)
DateTimeUTC,F1_M11,P_M11,Q1_M11,Q2_M11,T1_M11,T2_M11,T3_M11,T4_M11,T5_M11,U1_M11,ZSPAN_M11,X0_M11,X2_M11,X1_M11
2023-12-08 08:00:00,SystemResetWarning,0820.2,5.00,000.00,021.4,020.6,000.0,029.8,022.7,12.8,0000.0,0003.15,0001.09,0000.67
2023-12-08 08:01:00,SystemResetWarning,0820.3,5.01,000.00,021.4,020.6,000.0,029.8,022.8,12.8,0000.0,0003.16,0001.08,0000.68
2023-12-08 08:02:00,SystemResetWarning,0820.3,5.01,000.00,021.5,020.6,000.0,029.8,022.8,12.7,0000.0,0003.13,0001.06,0000.67
2023-12-08 08:03:00,SystemResetWarning,0820.4,5.00,000.00,021.5,020.6,000.0,029.8,022.9,12.7,0000.0,0002.99,0001.06,0000.67
2023-12-08 08:04:00,SystemResetWarning,0820.3,4.99,000.00,021.5,020.7,000.0,029.8,022.8,12.7,0000.0,0002.06,0001.05,0000.66
2023-12-08 08:05:00,SystemResetWarning,0820.2,4.99,000.00,021.5,020.7,000.0,029.8,022.7,12.7,0000.0,0002.20,0001.08,0000.66
2023-12-08 08:06:00,SystemResetWarning,0820.1,5.01,000.00,021.5,020.7,000.0,029.8,022.8,12.6,0000.0,0002.38,0001.11,0000.66
2023-12-08 08:07:00,SystemResetWarning,0820.1,5.01,000.00,021.5,020.7,000.0,029.8,022.9,12.7,0000.0,0004.28,0001.09,0000.66
2023-12-08 08:08:00,SystemResetWarning,0820.3,4.99,000.00,021.5,020.7,000.0,029.8,022.9,12.6,0000.0,0004.35,0001.10,0000.66
2023-12-08 08:09:00,SystemResetWarning,0820.4,4.98,000.00,021.5,020.7,000.0,029.8,022.9,12.3,0000.0,0004.38,0001.07,0000.65
2023-12-08 08:10:00,SystemResetWarning,0820.2,5.01,000.00,021.6,020.7,000.0,029.8,022.9,11.9,0000.0,0004.50,0001.06,0000.65
2023-12-08 08:11:00,SystemResetWarning,0820.3,5.01,000.00,021.6,020.7,000.0,029.8,022.9,12.1,0000.0,0004.49,0001.06,0000.65
2023-12-08 08:12:00,SystemResetWarning,0820.2,4.99,000.00,021.6,020.7,000.0,029.9,022.9,12.0,0000.0,0004.58,0001.09,0000.65
2023-12-08 08:13:00,SystemResetWarning,0820.3,4.99,000.00,021.6,020.7,000.0,029.9,022.9,12.2,0000.0,0004.66,0001.10,0000.64
2023-12-08 08:14:00,SystemResetWarning,0820.3,5.00,000.00,021.6,020.7,000.0,029.9,022.9,12.2,0000.0,0004.86,0001.16,0000.65
2023-12-08 08:15:00,SystemResetWarning,0820.1,5.00,000.00,021.6,020.7,000.0,029.9,022.9,12.2,0000.0,0004.81,0001.14,0000.64
2023-12-08 08:16:00,SystemResetWarning,0820.1,5.01,000.00,021.6,020.7,000.0,029.9,022.9,12.3,0000.0,0005.72,0001.13,0000.64
2023-12-08 08:17:00,SystemResetWarning,0820.1,5.01,000.00,021.6,020.7,000.0,029.9,022.9,12.4,0000.0,0005.56,0001.08,0000.64
2023-12-08 08:18:00,SystemResetWarning,0820.2,5.00,000.00,021.6,020.8,000.0,029.9,022.9,12.3,0000.0,0003.75,0001.10,0000.64
2023-12-08 08:19:00,SystemResetWarning,0820.2,5.00,000.00,021.6,020.8,000.0,029.9,023.0,12.3,0000.0,0003.63,0001.08,0000.64
2023-12-08 08:20:00,SystemResetWarning,0820.2,5.00,000.00,021.6,020.8,000.0,029.9,023.0,12.3,0000.0,0003.45,0001.06,0000.65
2023-12-08 08:21:00,SystemResetWarning,0820.2,4.99,000.00,021.6,020.8,000.0,029.9,023.0,12.3,0000.0,0003.26,0001.06,0000.64
2023-12-08 08:22:00,SystemResetWarning,0820.2,5.00,000.00,021.7,020.8,000.0,029.9,023.0,12.4,0000.0,0003.25,0001.06,0000.64
2023-12-08 08:23:00,SystemResetWarning,0820.2,5.01,000.00,021.7,020.8,000.0,029.9,023.0,12.3,0000.0,0003.23,0001.05,0000.64
2023-12-08 08:24:00,SystemResetWarning,0820.2,5.01,000.00,021.7,020.8,000.0,029.9,023.0,12.3,0000.0,0003.69,0001.10,0000.64
2023-12-08 08:25:00,SystemResetWarning,0820.2,5.00,000.00,021.6,020.8,000.0,029.9,022.9,12.3,0000.0,0003.66,0001.11,0000.65
2023-12-08 08:26:00,SystemResetWarning,0820.2,4.99,000.00,021.6,020.7,000.0,029.9,022.7,12.3,0000.0,0003.63,0001.10,0000.65
2023-12-08 08:27:00,SystemResetWarning,0820.3,4.99,000.00,021.6,020.7,000.0,029.9,022.8,12.4,0000.0,0002.98,0001.10,0000.66
2023-12-08 08:28:00,SystemResetWarning,0820.1,5.01,000.00,021.6,020.7,000.0,029.9,022.8,12.4,0000.0,0002.56,0001.09,0000.67
2023-12-08 08:29:00,SystemResetWarning,0820.2,5.01,000.00,021.6,020.7,000.0,029.9,022.9,12.4,0000.0,0003.15,0001.11,0000.67
2023-12-08 08:30:00,SystemResetWarning,0820.1,5.00,000.00,021.6,020.7,000.0,029.9,022.9,12.4,0000.0,0003.34,0001.14,0000.67
2023-12-08 08:31:00,SystemResetWarning,0820.2,4.99,000.00,021.6,020.7,000.0,029.9,022.9,12.3,0000.0,0003.42,0001.19,0000.67
2023-12-08 08:32:00,SystemResetWarning,0820.2,5.00,000.00,021.6,020.7,000.0,029.9,022.9,12.3,0000.0,0003.52,0001.22,0000.68
2023-12-08 08:33:00,SystemResetWarning,0820.2,4.99,000.00,021.6,020.7,000.0,029.9,022.8,12.3,0000.0,0003.50,0001.21,0000.69
2023-12-08 08:34:00,SystemResetWarning,0820.4,5.00,000.00,021.6,020.7,000.0,029.9,022.7,12.3,0000.0,0003.57,0001.22,0000.69
2023-12-08 08:35:00,SystemResetWarning,0820.1,5.01,000.00,021.6,020.7,000.0,029.9,022.8,12.4,0000.0,0003.75,0001.25,0000.69
2023-12-08 08:36:00,SystemResetWarning,0820.0,5.01,000.00,021.6,020.7,000.0,029.9,022.8,12.3,0000.0,0003.52,0001.19,0000.69
2023-12-08 08:37:00,SystemResetWarning,0820.2,4.99,000.00,021.6,020.7,000.0,029.9,022.8,12.3,0000.0,0003.57,0001.21,0000.68
2023-12-08 08:38:00,SystemResetWarning,0820.3,4.99,000.00,021.6,020.7,000.0,029.9,022.9,12.4,0000.0,0003.78,0001.23,0000.68
2023-12-08 08:39:00,SystemResetWarning,0820.4,5.00,000.00,021.6,020.7,000.0,029.9,022.9,12.4,0000.0,0004.91,0001.24,0000.68
2023-12-08 08:40:00,SystemResetWarning,0820.2,5.01,000.00,021.6,020.7,000.0,029.9,022.9,12.4,0000.0,0004.49,0001.26,0000.68
2023-12-08 08:41:00,SystemResetWarning,0820.3,5.00,000.00,021.6,020.7,000.0,029.9,022.9,12.3,0000.0,0004.11,0001.24,0000.68
2023-12-08 08:42:00,SystemResetWarning,0820.3,4.99,000.00,021.6,020.7,000.0,029.9,022.9,12.1,0000.0,0004.28,0001.27,0000.69
2023-12-08 08:43:00,SystemResetWarning,0820.3,4.99,000.00,021.6,020.7,000.0,029.9,022.9,12.2,0000.0,0004.21,0001.26,0000.69
2023-12-08 08:44:00,SystemResetWarning,0820.3,5.01,000.00,021.6,020.7,000.0,029.9,022.9,12.2,0000.0,0004.20,0001.26,0000.68
2023-12-08 08:45:00,SystemResetWarning,0820.3,5.01,000.00,021.6,020.7,000.0,029.9,022.9,12.2,0000.0,0004.16,0001.24,0000.67
2023-12-08 08:46:00,SystemResetWarning,0820.2,5.00,000.00,021.6,020.7,000.0,029.9,023.0,12.1,0000.0,0004.61,0001.15,0000.67
2023-12-08 08:47:00,SystemResetWarning,0820.2,4.99,000.00,021.6,020.7,000.0,029.9,022.9,12.1,0000.0,0004.78,0001.14,0000.67
2023-12-08 08:48:00,SystemResetWarning,0820.2,5.00,000.00,021.6,020.7,000.0,029.9,022.9,12.1,0000.0,0004.77,0001.15,0000.68
2023-12-08 08:49:00,SystemResetWarning,0820.3,5.00,000.00,021.6,020.7,000.0,029.9,022.9,12.1,0000.0,0004.67,0001.13,0000.68
2023-12-08 08:50:00,SystemResetWarning,0820.3,5.01,000.00,021.6,020.6,000.0,029.9,022.9,12.2,0000.0,0003.82,0001.16,0000.68
2023-12-08 08:51:00,SystemResetWarning,0820.2,5.01,000.00,021.6,020.6,000.0,029.9,022.9,12.2,0000.0,0003.84,0001.16,0000.68
2023-12-08 08:52:00,SystemResetWarning,0820.3,4.99,000.00,021.6,020.6,000.0,029.9,022.9,12.1,0000.0,0003.85,0001.15,0000.68
2023-12-08 08:53:00,SystemResetWarning,0820.2,4.98,000.00,021.6,020.6,000.0,029.9,022.9,12.1,0000.0,0003.56,0001.09,0000.68
2023-12-08 08:54:00,SystemResetWarning,0820.2,5.01,000.00,021.6,020.6,000.0,029.9,022.8,12.1,0000.0,0003.58,0001.08,0000.67
2023-12-08 08:55:00,SystemResetWarning,0820.2,5.02,000.00,021.6,020.6,000.0,029.9,022.8,12.1,0000.0,0003.56,0001.09,0000.67
2023-12-08 08:56:00,SystemResetWarning,0820.1,4.99,000.00,021.5,020.6,000.0,029.9,022.9,12.0,0000.0,0003.58,0001.09,0000.68
2023-12-08 08:57:00,SystemResetWarning,0820.1,4.99,000.00,021.6,020.6,000.0,029.9,022.9,11.7,0000.0,0003.13,0001.17,0000.68
2023-12-08 08:58:00,SystemResetWarning,0820.3,5.00,000.00,021.6,020.6,000.0,029.9,022.9,11.5,0000.0,0002.61,0001.19,0000.68
2023-12-08 08:59:00,SystemResetWarning,0820.4,5.01,000.00,021.6,020.6,000.0,029.9,022.9,11.3,0000.0,0002.68,0001.17,0000.68
